星链-31219 (STARLINK-31219 )

导读

STARLINK-31219是美国SpaceX星链星座的一员,于2024年1月29日发射入轨,星链计划旨在构建全球卫星互联网星座,为全球不同地区提供高速低延迟的宽带服务,该卫星继承星链卫星技术设计,承担卫星星座组网,补充星座服务能力,助力覆盖范围与网络容量进一步提升。

Basic Information
目录编号:
58866
目录名称:
STARLINK-31219
国际标识:
2024-019P
轨道中心:
EARTH
卫星名称:
星链-31219
卫星全名:
星链-31219 (STARLINK-31219 )
卫星状态:
在轨 (已飞行956 天)
发射日期:
2024-01-29 UTC
国别 :
美国 (US)
星等 :
--
This satellite is enrolled in the Space Conjunction Data Service (SCDS) and the current flight risk assessment level is: No High Risk
Orbit Information
数据来源 国际轨道数据 AOE轨道数据
星历时间 2026-09-11T10:39:18+0800
10小时前
查看轨道信息
2026-09-10T12:00:00+0800
1天前
查看轨道信息
半长轴 6861.193km 6861.206km
偏心率 0.000117 0.0000055
轨道倾角 43.000° 42.997°
近地点辐角 278.895° 283.876°
升交点赤经 281.463° 286.795°
平近点角 81.177° 279.004°
近地点 482.253km 483.031km
远地点 483.859km 483.107km
周期 94.267分钟 94.267分钟
每日圈数 15.275777 15.275735
Detailed Information
固有亮度:
5
最大亮度:
0.3
卫星平台:
Starlink v2.0 mini
覆盖范围:
全球
运营商:
太空探索技术公司
运营商所在国:
美国
制造商(研发单位):
太空探索技术公司
制造商所在国:
美国
使用方式:
暂无
Satellite Introduction
星链(Starlink)计划是由太空探索技术公司(SpaceX)提出的一个巨型低轨卫星互联网星座项目,计划在2019年至2024年间在太空搭建由约1.2万颗卫星组成的“星链”网络,其中1584颗将部署在地球上空550千米处的近地轨道,并从2020年开始工作。该卫星仍在工作。
2D Orbit Map
3D Orbit Map
Orbit Altitude Analysis Chart
Orbit Inclination Analysis Chart
Orbit Comprehensive Analysis Chart
View Comprehensive Chart
Conjunction Data List
Event ID Objects TCA Miss Dist (km) Collision Risk Probability Collision Risk Index (CRI) Action
CDM_260911-104305-886606-274222
2026-09-11T
10:43:36+0000
0.711 km
远距离
5.228087E-5 中风险 0.69
CDM_260911-090205-886606-340922
2026-09-11T
09:02:36+0000
1.090 km
极远距离
1.508841E-5 中风险 0.59
CDM_260911-235705-886606-340921
2026-09-11T
23:57:03+0000
1.093 km
极远距离
1.4913E-5 中风险 0.58
CDM_260911-103605-886606-340921
2026-09-11T
10:36:45+0000
1.289 km
极远距离
8.430494E-6 低风险 0.54
CDM_260912-000305-886606-274221
2026-09-12T
00:03:55+0000
1.338 km
极远距离
6.234287E-6 低风险 0.51
CDM_260912-050405-886606-732021
2026-09-12T
05:04:19+0000
1.328 km
极远距离
5.719455E-6 低风险 0.5
CDM_260911-121705-886606-274221
2026-09-11T
12:17:45+0000
1.506 km
极远距离
4.230195E-6 低风险 0.48
CDM_260912-063805-886606-732021
2026-09-12T
06:38:28+0000
1.457 km
极远距离
4.222361E-6 低风险 0.48
CDM_260913-050805-886606-726221
OBJECT Q (67262)
2026-09-13T
05:08:40+0000
1.647 km
极远距离
3.68333E-6 低风险 0.46
CDM_260912-073505-870005-886623
2026-09-12T
07:35:56+0000
1.961 km
极远距离
2.941865E-6 低风险 0.44
Miss Distance Evolution Trend with All Objects
Collision Probability Evolution Trend with All Objects